[[{"header":{"parameterUnit":"m.s-1","parameterCategory":1,"la1":30.2991,"la2":30.254,"lo1":-89.0895,"lo2":-89.0444,"dy":0.0017,"dx":0.0017,"nx":28,"ny":28,"refTime":"2025-03-31T21:00:00:Z","depth":0,"parameterNumber":2,"parameterNumberName":"U-component_of_WINDS"},"data":[0,0,0,0,0,0,0,0,0,0,0,0,0,0,0,0,0,0,0,0,0,0,0,0,0,0,0,0,0,0,0,0,0,0,0,0,0,0,0,0,0,0,0,0,0,0,0,0,0,0,0,0,0,0,0,0,0,0,2.6244,2.6245,0,2.6297,2.6298,2.6298,2.6268,2.6266,2.6265,2.6264,2.6327,2.6329,2.6333,0,0,0,0,0,0,0,0,0,0,0,0,0,2.6127,2.6129,2.6244,2.6245,2.6245,2.6297,2.6298,2.6298,2.6268,2.6266,2.6265,2.6263,2.6325,2.6329,2.6333,0,0,0,0,0,0,0,0,0,0,0,0,0,2.6179,2.613,2.6244,2.6236,2.6236,2.6297,2.6298,2.6299,2.6269,2.6266,2.6264,2.6262,2.6324,2.6329,2.6333,2.6407,0,0,2.6347,2.6349,0,0,0,0,0,0,0,0,2.6176,2.6183,2.6237,2.6237,2.6237,2.6273,2.6279,2.6335,2.6269,2.6257,2.6263,2.6261,2.6311,2.6317,2.6332,2.641,2.6413,2.6348,2.6351,2.6353,2.6354,0,0,0,0,0,0,0,2.6173,2.6181,2.6265,2.6238,2.6238,2.6234,2.6239,2.629,2.6296,2.6257,2.6255,2.6262,2.6311,2.6328,2.6333,2.6414,2.6348,2.6352,2.6355,2.6356,2.6559,2.6561,0,0,0,0,0,0,2.6168,2.6178,2.6263,2.6267,2.62,2.6238,2.6243,2.6264,2.6295,2.6298,2.6263,2.626,2.6321,2.6328,2.6335,2.6425,2.6353,2.6357,2.636,2.6556,2.656,2.6562,0,0,0,0,0,0,2.6166,2.6176,2.6261,2.6222,2.6232,2.6242,2.6266,2.6266,2.6283,2.63,2.6302,2.6279,2.6319,2.6329,2.639,2.6427,2.6359,2.6363,2.6553,2.6557,2.6561,2.6605,0,0,0,0,0,0,2.6163,2.6175,2.6201,2.6223,2.6235,2.6311,2.6268,2.6269,2.629,2.6286,2.6315,2.6317,2.6318,2.6383,2.6394,2.6432,2.6367,2.655,2.6555,2.656,2.66,2.661,2.6618,0,0,0,0,0,2.6158,2.6212,2.6202,2.6212,2.6266,2.6314,2.6321,2.6318,2.6293,2.632,2.6332,2.6316,2.6421,2.6389,2.6402,2.6442,2.6548,2.6554,2.6559,2.6596,2.6608,2.6618,0,0,0,0,0,0,2.6196,2.6215,2.6204,2.6265,2.6288,2.6308,2.6342,2.633,2.6363,2.6358,2.6356,2.6363,2.6427,2.6441,2.6405,2.6517,2.6481,2.649,2.6505,2.6516,2.6525,2.652,2.6371,0,0,0,0,0,2.6211,2.6245,2.6261,2.6314,2.6326,2.6332,2.6353,2.6349,2.6374,2.6384,2.64,2.6427,2.6466,2.6492,2.6529,2.6603,2.661,2.6637,2.6646,2.6653,2.6661,2.6704,2.6716,2.6582,2.6582,2.6582,0,0,2.6244,2.6258,2.628,2.6322,2.6339,2.6378,2.6341,2.6382,2.6412,2.6391,2.6449,2.6462,2.6493,2.6561,2.6592,2.6574,2.67,2.6661,2.6666,2.667,2.6711,2.6724,2.6735,2.6586,2.6585,2.6584,0,0,2.6322,2.6335,2.6382,2.64,2.6425,2.643,2.6441,2.6464,2.6472,2.6529,2.6515,2.6553,2.662,2.6642,2.6663,2.6754,2.6742,2.6767,2.6814,2.6856,2.6866,2.6876,2.691,2.6922,2.6775,2.6775,2.6775,0,2.6359,2.6413,2.6408,2.6451,2.6472,2.6453,2.6502,2.6521,2.6559,2.6575,2.6555,2.664,2.666,2.6734,2.6756,2.6773,2.6789,2.6763,2.6864,2.6874,2.6883,2.6915,2.6928,2.6777,2.6777,2.6777,2.6777,0,2.6459,2.6498,2.6533,2.6567,2.6592,2.6639,2.6644,2.667,2.6666,2.6674,2.6735,2.6758,2.68,2.6818,2.6815,2.6894,2.6882,2.6864,2.6827,2.6898,2.6929,2.6941,2.6782,2.6781,2.678,2.6779,0,0,2.656,2.6592,2.6606,2.6622,2.6651,2.6682,2.673,2.6769,2.6793,2.6822,2.6863,2.6922,2.6906,2.6929,2.6929,2.6966,2.7039,2.6943,2.6944,2.6961,2.713,2.7144,2.7158,2.7032,2.7034,2.7036,2.7128,0,2.6641,2.6719,2.6718,2.6793,2.683,2.6815,2.6857,2.6882,2.6892,2.6928,2.6941,2.6982,2.6957,2.6971,2.7007,2.7022,2.7073,2.7016,2.7074,2.7076,2.7065,2.7174,2.7188,2.7273,2.714,2.7142,2.7143,0,2.6744,2.6773,2.6851,2.6877,2.6893,2.693,2.6967,2.7001,2.7031,2.7036,2.7063,2.7058,2.7111,2.7075,2.7149,2.711,2.7135,2.7147,2.715,2.7155,2.7113,2.7182,2.73,2.7313,2.7162,2.716,2.7159,0,2.681,2.687,2.6925,2.694,2.6971,2.6998,2.7013,2.704,2.7065,2.7099,2.7116,2.7157,2.718,2.7214,2.7222,2.7194,2.7298,2.7261,2.7306,2.7306,2.7328,2.7326,2.7451,2.7344,2.7344,2.7343,2.7343,0,2.69,2.6949,2.6955,2.6989,2.7045,2.7045,2.7101,2.7115,2.714,2.7179,2.717,2.7208,2.7216,2.7257,2.7264,2.7327,2.7337,2.7345,2.7346,2.7345,2.7345,2.7361,2.7355,2.7347,2.7346,2.7345,2.7345,0,2.6983,2.6989,2.7048,2.7073,2.7081,2.7121,2.7144,2.7179,2.7189,2.7239,2.7251,2.7268,2.7316,2.7327,2.7385,2.739,2.7464,2.746,2.7453,2.7453,2.7497,2.7493,2.7637,2.7657,2.7537,2.7538,2.7539,0,2.7039,2.7076,2.7105,2.7129,2.7144,2.7184,2.7209,2.7213,2.724,2.7278,2.7309,2.7355,2.7392,2.7471,2.7491,2.7536,2.7533,2.7581,2.754,2.7539,2.7535,2.7532,2.7537,2.7588,2.7589,2.759,2.7591,0,2.7138,2.714,2.7175,2.7212,2.7241,2.7271,2.73,2.7322,2.733,2.7362,2.7409,2.7438,2.7497,2.7545,2.7591,2.7611,2.7604,2.7604,2.7617,2.7616,2.761,2.7615,2.7474,2.76,2.7599,2.7599,2.7598,2.7598,2.721,2.7243,2.7268,2.7309,2.7331,2.7358,2.7392,2.7407,2.7445,2.7491,2.7493,2.7545,2.7579,2.7639,2.7662,2.7706,2.7692,2.7711,2.7715,2.772,2.7724,2.7604,2.7715,2.7715,2.7715,2.7714,2.7714,0,2.7309,2.7326,2.7362,2.7402,2.7435,2.7423,2.7456,2.7485,2.753,2.756,2.7597,2.7654,2.7701,2.7725,2.7773,2.7804,2.7803,2.7817,2.7814,2.782,2.7733,2.7717,2.7817,2.7817,2.7817,2.7817,2.7817,2.7817,2.7364,2.742,2.7426,2.7494,2.7511,2.756,2.758,2.7607,2.7631,2.7694,2.7732,2.7747,2.7777,2.7827,2.7871,2.7878,2.7896,2.7912,2.7917,2.7836,2.7825,2.7815,2.78,2.7916,2.7916,2.8,2.8,2.8001]},{"header":{"parameterUnit":"m.s-1","parameterCategory":1,"la1":30.2991,"la2":30.254,"lo1":-89.0895,"lo2":-89.0444,"dy":0.0017,"dx":0.0017,"nx":28,"ny":28,"refTime":"2025-03-31T21:00:00:Z","depth":0,"parameterNumber":3,"parameterNumberName":"V-component_of_WINDS"},"data":[0,0,0,0,0,0,0,0,0,0,0,0,0,0,0,0,0,0,0,0,0,0,0,0,0,0,0,0,0,0,0,0,0,0,0,0,0,0,0,0,0,0,0,0,0,0,0,0,0,0,0,0,0,0,0,0,0,0,0.7989,0.7991,0,0.8181,0.8183,0.8185,0.8259,0.8258,0.8258,0.8257,0.8448,0.8454,0.8459,0,0,0,0,0,0,0,0,0,0,0,0,0,0.7678,0.7683,0.7988,0.7991,0.7993,0.818,0.8183,0.8186,0.8259,0.8258,0.8257,0.8257,0.8446,0.8453,0.846,0,0,0,0,0,0,0,0,0,0,0,0,0,0.7835,0.7685,0.7988,0.8052,0.806,0.818,0.8183,0.8186,0.8259,0.8258,0.8257,0.8256,0.8444,0.8452,0.8461,0.8529,0,0,0.8486,0.849,0,0,0,0,0,0,0,0,0.7826,0.7847,0.804,0.8048,0.8057,0.8195,0.8144,0.8301,0.8259,0.8183,0.8257,0.8256,0.8364,0.8379,0.8417,0.8538,0.8546,0.8487,0.8492,0.8496,0.8498,0,0,0,0,0,0,0,0.7815,0.7839,0.8064,0.8043,0.8053,0.8069,0.8091,0.8174,0.8276,0.819,0.8196,0.8218,0.8368,0.8409,0.8422,0.8549,0.8487,0.8494,0.8499,0.8503,0.8734,0.8735,0,0,0,0,0,0,0.7795,0.7829,0.8058,0.807,0.7938,0.8076,0.81,0.8151,0.8275,0.8293,0.8218,0.822,0.8395,0.8412,0.8429,0.8517,0.8496,0.8503,0.8508,0.8732,0.8734,0.8735,0,0,0,0,0,0,0.7788,0.7814,0.805,0.7951,0.7983,0.8082,0.8139,0.8156,0.8196,0.8297,0.8315,0.8241,0.8395,0.8417,0.8504,0.8524,0.8507,0.8515,0.8731,0.8733,0.8734,0.8692,0,0,0,0,0,0,0.7778,0.7811,0.784,0.7952,0.7988,0.8124,0.8141,0.816,0.8211,0.8216,0.8323,0.834,0.8396,0.8491,0.8512,0.8535,0.8521,0.873,0.8732,0.8734,0.8692,0.8692,0.8692,0,0,0,0,0,0.7767,0.7819,0.7841,0.7868,0.8026,0.8125,0.8145,0.8211,0.8212,0.8241,0.8305,0.8336,0.8518,0.8499,0.8523,0.855,0.8729,0.8731,0.8734,0.8692,0.8692,0.8692,0,0,0,0,0,0,0.7706,0.7835,0.7861,0.7951,0.8027,0.8137,0.8175,0.8209,0.8284,0.8285,0.8361,0.8384,0.8464,0.8516,0.8492,0.8621,0.8625,0.8633,0.8585,0.8586,0.8586,0.8572,0.8528,0,0,0,0,0,0.7703,0.7775,0.7883,0.7952,0.7989,0.8075,0.8121,0.8165,0.8245,0.8277,0.8348,0.8423,0.8497,0.8544,0.8618,0.8699,0.8723,0.8729,0.8729,0.8729,0.8734,0.878,0.8784,0.8743,0.8743,0.8743,0,0,0.7698,0.7777,0.7818,0.7942,0.8006,0.8076,0.8102,0.8176,0.8228,0.8288,0.8374,0.8428,0.8517,0.8601,0.8641,0.8646,0.875,0.8732,0.8731,0.8737,0.8783,0.8786,0.879,0.8745,0.8744,0.8744,0,0,0.7725,0.7792,0.7857,0.7921,0.8017,0.8074,0.8089,0.8195,0.8234,0.8322,0.8368,0.843,0.8557,0.8618,0.8665,0.8713,0.8744,0.8735,0.8735,0.8778,0.8781,0.8785,0.8801,0.8806,0.874,0.874,0.874,0,0.7705,0.7816,0.7886,0.7958,0.801,0.8069,0.8134,0.8191,0.8306,0.8339,0.8343,0.8503,0.8567,0.8665,0.8677,0.8713,0.8732,0.8723,0.8776,0.8779,0.8783,0.88,0.8806,0.8738,0.8738,0.8738,0.8739,0,0.7787,0.7862,0.7902,0.8014,0.8071,0.8138,0.8217,0.8265,0.8303,0.8359,0.8447,0.8525,0.8616,0.8642,0.8679,0.8745,0.8745,0.8761,0.8767,0.8784,0.8801,0.8808,0.8736,0.8736,0.8737,0.8737,0,0,0.7781,0.793,0.7944,0.7995,0.8105,0.8164,0.8232,0.8323,0.8363,0.8439,0.8498,0.8603,0.8618,0.8672,0.8716,0.8754,0.8786,0.8766,0.8769,0.8766,0.8862,0.8849,0.8856,0.8807,0.8808,0.8809,0.8854,0,0.7822,0.7951,0.8016,0.8116,0.8186,0.8242,0.8302,0.8374,0.8427,0.8492,0.855,0.8623,0.8639,0.8671,0.8711,0.8774,0.8806,0.8771,0.886,0.8863,0.8837,0.8865,0.8852,0.8891,0.8861,0.8863,0.8863,0,0.7888,0.7966,0.8073,0.8175,0.8207,0.826,0.8347,0.8409,0.8491,0.8527,0.8587,0.863,0.8702,0.8702,0.8802,0.8777,0.8816,0.8852,0.8855,0.8866,0.8864,0.8876,0.8905,0.8911,0.8874,0.8874,0.8873,0,0.7872,0.8004,0.8085,0.8127,0.8248,0.8283,0.8335,0.8417,0.8466,0.8541,0.8574,0.8655,0.87,0.8761,0.8824,0.8818,0.8917,0.8922,0.8947,0.8946,0.8966,0.8964,0.9002,0.8991,0.8991,0.8991,0.8991,0,0.7911,0.7975,0.808,0.813,0.8202,0.8274,0.8343,0.8398,0.847,0.853,0.8582,0.8637,0.8717,0.8781,0.883,0.8904,0.8924,0.8953,0.8966,0.8949,0.8945,0.8977,0.8976,0.8993,0.8992,0.8992,0.8992,0,0.7907,0.798,0.8072,0.8179,0.8207,0.8255,0.8346,0.8395,0.845,0.8525,0.8547,0.8633,0.8711,0.878,0.8882,0.8915,0.8991,0.9006,0.8964,0.8971,0.8992,0.8989,0.9051,0.9063,0.9044,0.9044,0.9044,0,0.7927,0.7978,0.809,0.8135,0.8186,0.8258,0.8309,0.8381,0.8432,0.8529,0.8566,0.8648,0.8718,0.8838,0.8909,0.8986,0.9004,0.902,0.9016,0.8997,0.9004,0.9,0.9005,0.902,0.902,0.902,0.902,0,0.7955,0.7989,0.8062,0.8148,0.8208,0.8278,0.835,0.8383,0.8468,0.8522,0.8603,0.8657,0.8762,0.8842,0.8928,0.8978,0.9012,0.902,0.903,0.9014,0.8987,0.9002,0.8963,0.9019,0.9019,0.9019,0.9019,0.9019,0.7964,0.8011,0.8098,0.8177,0.8239,0.8304,0.8356,0.8418,0.8488,0.8581,0.8618,0.87,0.878,0.8899,0.8949,0.9012,0.9018,0.9033,0.9036,0.9039,0.9036,0.8977,0.9028,0.9028,0.9028,0.9028,0.9028,0,0.7994,0.8053,0.8125,0.8225,0.8287,0.8316,0.8396,0.8445,0.8518,0.859,0.8658,0.875,0.8827,0.8903,0.8984,0.902,0.9038,0.9039,0.9037,0.9048,0.9026,0.9009,0.9023,0.9023,0.9023,0.9023,0.9023,0.9023,0.8018,0.8099,0.8143,0.8254,0.8312,0.8395,0.8438,0.8498,0.8556,0.8658,0.8723,0.8773,0.8846,0.8933,0.9004,0.9024,0.9051,0.9048,0.9072,0.905,0.905,0.9049,0.9034,0.9053,0.9053,0.9089,0.9089,0.909]}]]